Hattiesburg, MS

10:10 PM CDT on April 23, 2017 (GMT -0500)
Chain Municipal

Weather History for KHBG - February, 2013

Change the Weather History Date:

Tuesday, February 5, 2013

  Actual Average Record
Temperature  
Mean Temperature 63 °F 50 °F  
Max Temperature 75 °F 61 °F 83 °F (2008)
Min Temperature 50 °F 38 °F 15 °F (1996)
Degree Days  
Heating Degree Days 2 16  
Month to date heating degree days 60 80  
Since 1 July heating degree days 1139 1379  
Cooling Degree Days 0 0  
Month to date cooling degree days 0 0  
Year to date cooling degree days 28 6  
Growing Degree Days 12 (Base 50)    
Moisture  
Dew Point 52 °F    
Average Humidity 75    
Maximum Humidity 100    
Minimum Humidity 49    
Precipitation  
Precipitation T in 0.17 in 1.57 in (1994)
Month to date precipitation 0.01 0.86  
Year to date precipitation 7.94 6.60  
Sea Level Pressure  
Sea Level Pressure 30.00 in    
Wind  
Wind Speed 1 mph (North)    
Max Wind Speed 8 mph    
Max Gust Speed 13 mph    
Visibility 7 miles    
Events Fog    
T = Trace of Precipitation, MM = Missing Value Source: NWS Daily Summary

Daily Weather History Graph

Daily Weather History Graph

Search for Another Location

Airport or City:

Trip Planner

Search our weather history database for the weather conditions in past years. The results will help you decide how hot, cold, wet, or windy it might be!

Date:

Astronomy

Feb. 05, 2013 Rise Set
Actual Time 6:46 AM CST 5:36 PM CST
Civil Twilight 6:21 AM CST 6:01 PM CST
Nautical Twilight 5:52 AM CST 6:30 PM CST
Astronomical Twilight 5:23 AM CST 6:58 PM CST
Moon 2:21 AM CST (2/5) 1:00 PM CST (2/5)
Length of Visible Light 11h 40m
Length of Day
10h 49m
Waning Crescent, 26% of the Moon is Illuminated
Feb 5
Waning Crescent
Feb 10
New
Feb 17
First Quarter
Feb 25
Full
Mar 4
Last Quarter

Hourly Weather History & Observations

Time (CST) Temp. Dew Point Humidity Pressure Visibility Wind Dir Wind Speed Gust Speed Precip Events Conditions
12:53 AM 52.0 °F 48.0 °F 86% 29.98 in 10.0 mi Calm Calm - 0.00 in   Overcast
1:53 AM 51.1 °F 48.0 °F 89% 29.97 in 8.0 mi Calm Calm - N/A   Partly Cloudy
2:53 AM 50.0 °F 48.0 °F 93% 29.97 in 5.0 mi Calm Calm - N/A   Partly Cloudy
3:04 AM 50.0 °F 48.2 °F 94% 29.96 in 5.0 mi Calm Calm - N/A   Mostly Cloudy
3:21 AM 51.8 °F 48.2 °F 88% 29.96 in 7.0 mi Calm Calm - N/A   Scattered Clouds
3:53 AM 51.1 °F 48.9 °F 92% 29.96 in 7.0 mi Calm Calm - N/A   Overcast
4:53 AM 52.0 °F 50.0 °F 93% 29.96 in 6.0 mi Calm Calm - N/A   Overcast
5:21 AM 51.8 °F 50.0 °F 94% 29.97 in 1.5 mi Calm Calm - N/A   Overcast
5:30 AM 51.8 °F 50.0 °F 94% 29.98 in 0.5 mi Calm Calm - N/A Fog Fog
5:43 AM 51.8 °F 50.0 °F 94% 29.98 in 0.2 mi Calm Calm - N/A Fog Fog
5:53 AM 52.0 °F 51.1 °F 97% 29.98 in 0.2 mi Calm Calm - N/A Fog Fog
6:53 AM 53.1 °F 51.1 °F 93% 30.01 in 0.2 mi Calm Calm - N/A Fog Fog
8:09 AM 53.6 °F 53.6 °F 100% 30.03 in 0.5 mi Calm Calm - N/A Fog Fog
8:16 AM 53.6 °F 51.8 °F 94% 30.03 in 0.2 mi Calm Calm - N/A Fog Fog
8:53 AM 55.0 °F 53.1 °F 93% 30.03 in 0.5 mi Calm Calm - N/A Fog Fog
9:39 AM 55.4 °F 55.4 °F 100% 30.03 in 2.0 mi SE 4.6 mph - N/A   Overcast
9:48 AM 57.2 °F 55.4 °F 94% 30.03 in 8.0 mi SE 4.6 mph - N/A   Overcast
9:53 AM 57.0 °F 55.0 °F 93% 30.04 in 9.0 mi Calm Calm - N/A   Overcast
10:36 AM 59.0 °F 55.4 °F 88% 30.04 in 10.0 mi Calm Calm - N/A   Overcast
10:53 AM 63.0 °F 55.9 °F 78% 30.04 in 10.0 mi Calm Calm - N/A   Scattered Clouds
11:53 AM 68.0 °F 57.9 °F 70% 30.01 in 10.0 mi Calm Calm - N/A   Clear
12:53 PM 71.1 °F 57.0 °F 61% 29.99 in 10.0 mi North 3.5 mph - N/A   Clear
1:53 PM 72.0 °F 54.0 °F 53% 29.97 in 10.0 mi WSW 3.5 mph - N/A   Clear
2:53 PM 73.0 °F 53.1 °F 49% 29.97 in 10.0 mi Calm Calm - N/A   Mostly Cloudy
3:53 PM 72.0 °F 54.0 °F 53% 29.96 in 10.0 mi North 4.6 mph - N/A   Overcast
4:53 PM 70.0 °F 55.0 °F 59% 29.97 in 10.0 mi NNW 4.6 mph - N/A   Overcast
5:53 PM 66.0 °F 55.0 °F 68% 29.98 in 10.0 mi Calm Calm - N/A   Partly Cloudy
6:53 PM 61.0 °F 55.0 °F 81% 30.00 in 10.0 mi Calm Calm - N/A   Partly Cloudy
7:53 PM 57.0 °F 53.1 °F 87% 30.02 in 10.0 mi Calm Calm - N/A   Clear
8:53 PM 55.9 °F 53.1 °F 90% 30.04 in 10.0 mi Calm Calm - N/A   Clear
9:53 PM 53.1 °F 51.1 °F 93% 30.04 in 10.0 mi Calm Calm - N/A   Clear
10:53 PM 53.1 °F 50.0 °F 89% 30.06 in 10.0 mi Calm Calm - N/A   Scattered Clouds
11:53 PM 51.1 °F 48.9 °F 92% 30.06 in 8.0 mi Calm Calm - N/A   Clear